When you browse on this site, cookies collect data to enhance your experience and personalize the content and advertising you see.
Visit our Privacy Policy to learn more. By continuing to use the site, you agree to this use of cookies and data.
  • In United Kingdom
  • List of Countries
  • For 7 days
  • Water Temperature
  • Satellite Maps
  • Weather Map
  • Weather Widgets
  • user-avatar
    Login

    Hourly Weather Suchobrzeznica

    Today, 21 February, Thursday

    Time Temperature Precipitation Wind Pressure Humidity
    00:00 +3°C° 0 mm 2 mps 756 mmHg 93%
    01:00 +3°C° 0 mm 2 mps 756 mmHg 94%
    02:00 +3°C° 0.2 mm 2 mps 756 mmHg 95%
    03:00 +3°C° 0.2 mm 2 mps 756 mmHg 95%
    04:00 +3°C° 0.2 mm 2 mps 756 mmHg 96%
    05:00 +4°C° 0.4 mm 2 mps 756 mmHg 96%
    06:00 +4°C° 0.4 mm 2 mps 756 mmHg 96%
    07:00 +3°C° 0.4 mm 3 mps 756 mmHg 95%
    08:00 +3°C° 0.9 mm 3 mps 756 mmHg 94%
    09:00 +4°C° 0.9 mm 3 mps 756 mmHg 93%
    10:00 +4°C° 0.9 mm 3 mps 756 mmHg 92%
    11:00 +4°C° 1 mm 3 mps 756 mmHg 92%
    12:00 +4°C° 1 mm 3 mps 755 mmHg 91%
    13:00 +4°C° 1 mm 3 mps 755 mmHg 91%
    14:00 +4°C° 1.1 mm 3 mps 755 mmHg 91%
    15:00 +4°C° 1.1 mm 3 mps 755 mmHg 92%
    16:00 +4°C° 1.1 mm 3 mps 754 mmHg 92%
    17:00 +4°C° 0.8 mm 3 mps 754 mmHg 93%
    18:00 +4°C° 0.8 mm 3 mps 754 mmHg 93%
    19:00 +4°C° 0.8 mm 3 mps 754 mmHg 94%
    20:00 +4°C° 0.5 mm 3 mps 754 mmHg 93%
    21:00 +4°C° 0.5 mm 3 mps 755 mmHg 93%
    22:00 +4°C° 0.5 mm 3 mps 755 mmHg 93%
    23:00 +1°C° 0.3 mm 4 mps 756 mmHg 90%

    Tomorrow, 22 February, Friday

    Time Temperature Precipitation Wind Pressure Humidity
    00:00 0°C° 0.3 mm 5 mps 757 mmHg 88%
    01:00 -3°C° 0.3 mm 6 mps 758 mmHg 85%
    02:00 -3°C° 0 mm 6 mps 759 mmHg 81%
    03:00 -4°C° 0 mm 6 mps 760 mmHg 77%
    04:00 -4°C° 0 mm 5 mps 761 mmHg 73%
    05:00 -5°C° 0 mm 5 mps 762 mmHg 69%
    06:00 -5°C° 0 mm 5 mps 763 mmHg 65%
    07:00 -5°C° 0 mm 5 mps 765 mmHg 61%
    08:00 -5°C° 0 mm 5 mps 766 mmHg 57%
    09:00 -5°C° 0 mm 5 mps 767 mmHg 53%
    10:00 -3°C° 0 mm 4 mps 768 mmHg 49%
    11:00 -3°C° 0 mm 4 mps 768 mmHg 47%
    12:00 -2°C° 0 mm 4 mps 769 mmHg 44%
    13:00 -1°C° 0 mm 3 mps 769 mmHg 41%
    14:00 -1°C° 0 mm 3 mps 770 mmHg 42%
    15:00 -2°C° 0 mm 3 mps 770 mmHg 44%
    16:00 -2°C° 0 mm 3 mps 770 mmHg 45%
    17:00 -2°C° 0 mm 3 mps 771 mmHg 47%
    18:00 -4°C° 0 mm 3 mps 771 mmHg 49%
    19:00 -4°C° 0 mm 3 mps 771 mmHg 51%
    20:00 -4°C° 0 mm 2 mps 772 mmHg 51%
    21:00 -4°C° 0 mm 2 mps 772 mmHg 50%
    22:00 -4°C° 0 mm 2 mps 773 mmHg 49%
    23:00 -4°C° 0 mm 2 mps 773 mmHg 48%

    Day after tomorrow, 23 February, Saturday

    Time Temperature Precipitation Wind Pressure Humidity
    00:00 -4°C° 0 mm 2 mps 773 mmHg 47%
    01:00 -2°C° 0 mm 1 mps 772 mmHg 45%
    02:00 -2°C° 0 mm 1 mps 772 mmHg 44%
    03:00 -3°C° 0 mm 0 mps 772 mmHg 43%
    04:00 -3°C° 0 mm 0 mps 773 mmHg 42%
    05:00 -3°C° 0 mm 0 mps 773 mmHg 42%
    06:00 -3°C° 0 mm 0 mps 773 mmHg 43%
    07:00 -3°C° 0 mm 0 mps 773 mmHg 43%
    08:00 -2°C° 0 mm 0 mps 773 mmHg 40%
    09:00 0°C° 0 mm 1 mps 773 mmHg 36%
    10:00 0°C° 0 mm 1 mps 773 mmHg 33%
    11:00 -1°C° 0 mm 2 mps 773 mmHg 31%
    12:00 +1°C° 0 mm 2 mps 773 mmHg 30%
    13:00 +2°C° 0 mm 2 mps 773 mmHg 28%
    14:00 +1°C° 0 mm 2 mps 772 mmHg 31%
    15:00 +1°C° 0 mm 2 mps 772 mmHg 34%
    16:00 +1°C° 0 mm 2 mps 771 mmHg 36%
    17:00 -1°C° 0 mm 2 mps 771 mmHg 40%
    18:00 -1°C° 0 mm 2 mps 771 mmHg 43%
    19:00 -2°C° 0 mm 2 mps 771 mmHg 46%
    20:00 -2°C° 0 mm 2 mps 771 mmHg 47%
    21:00 -1°C° 0 mm 2 mps 770 mmHg 47%
    22:00 -1°C° 0 mm 2 mps 770 mmHg 47%
    23:00 -1°C° 0 mm 3 mps 770 mmHg 48%

    24 February, Sunday

    Time Temperature Precipitation Wind Pressure Humidity
    00:00 -1°C° 0 mm 3 mps 770 mmHg 49%
    01:00 -1°C° 0 mm 3 mps 770 mmHg 49%
    02:00 -1°C° 0 mm 3 mps 769 mmHg 51%
    03:00 -1°C° 0 mm 3 mps 769 mmHg 52%
    04:00 -1°C° 0 mm 3 mps 768 mmHg 53%
    05:00 -1°C° 0 mm 3 mps 768 mmHg 55%
    06:00 -1°C° 0 mm 3 mps 768 mmHg 57%
    07:00 -1°C° 0 mm 3 mps 768 mmHg 59%
    08:00 0°C° 0 mm 3 mps 767 mmHg 59%
    09:00 +1°C° 0 mm 3 mps 767 mmHg 58%
    10:00 +2°C° 0 mm 3 mps 767 mmHg 58%
    11:00 +3°C° 0 mm 3 mps 767 mmHg 59%
    12:00 +4°C° 0 mm 3 mps 766 mmHg 61%
    13:00 +5°C° 0 mm 3 mps 766 mmHg 63%
    14:00 +5°C° 0 mm 3 mps 766 mmHg 65%
    15:00 +5°C° 0 mm 3 mps 765 mmHg 67%
    16:00 +5°C° 0 mm 3 mps 765 mmHg 69%
    17:00 +4°C° 0 mm 4 mps 765 mmHg 70%
    18:00 +3°C° 0 mm 4 mps 764 mmHg 70%
    19:00 +3°C° 0 mm 4 mps 764 mmHg 71%
    20:00 +1°C° 0 mm 4 mps 764 mmHg 77%
    21:00 +1°C° 0 mm 4 mps 764 mmHg 82%
    22:00 +1°C° 0 mm 4 mps 764 mmHg 88%
    23:00 +3°C° 0 mm 4 mps 764 mmHg 89%

    25 February, Monday

    Time Temperature Precipitation Wind Pressure Humidity
    00:00 +3°C° 0 mm 4 mps 765 mmHg 90%
    01:00 +4°C° 0 mm 4 mps 765 mmHg 91%
    02:00 +3°C° 0 mm 4 mps 766 mmHg 90%
    03:00 +1°C° 0 mm 4 mps 766 mmHg 89%
    04:00 +1°C° 0 mm 4 mps 766 mmHg 87%
    05:00 0°C° 0 mm 4 mps 767 mmHg 87%
    06:00 +1°C° 0 mm 3 mps 767 mmHg 87%
    07:00 0°C° 0 mm 3 mps 768 mmHg 87%
    08:00 +2°C° 0 mm 3 mps 768 mmHg 80%
    09:00 +3°C° 0 mm 4 mps 769 mmHg 73%
    10:00 +4°C° 0 mm 4 mps 769 mmHg 66%
    11:00 +5°C° 0 mm 4 mps 769 mmHg 61%
    12:00 +7°C° 0 mm 3 mps 769 mmHg 56%
    13:00 +8°C° 0 mm 3 mps 769 mmHg 50%
    14:00 +8°C° 0 mm 3 mps 768 mmHg 52%
    15:00 +8°C° 0 mm 3 mps 768 mmHg 54%
    16:00 +7°C° 0 mm 2 mps 768 mmHg 56%
    17:00 +6°C° 0 mm 2 mps 768 mmHg 61%
    18:00 +4°C° 0 mm 3 mps 768 mmHg 66%
    19:00 +3°C° 0 mm 3 mps 768 mmHg 71%
    20:00 +3°C° 0 mm 3 mps 767 mmHg 71%
    21:00 +3°C° 0 mm 3 mps 766 mmHg 70%
    22:00 +1°C° 0 mm 4 mps 766 mmHg 70%
    23:00 +1°C° 0 mm 4 mps 765 mmHg 73%

    26 February, Tuesday

    Time Temperature Precipitation Wind Pressure Humidity
    00:00 +3°C° 0 mm 4 mps 764 mmHg 76%
    01:00 +2°C° 0 mm 5 mps 764 mmHg 79%
    02:00 +2°C° 0 mm 5 mps 763 mmHg 79%
    03:00 +2°C° 0 mm 5 mps 762 mmHg 80%
    04:00 +3°C° 0 mm 5 mps 762 mmHg 81%
    05:00 +3°C° 0 mm 5 mps 761 mmHg 79%
    06:00 +3°C° 0 mm 5 mps 761 mmHg 76%
    07:00 +3°C° 0 mm 5 mps 761 mmHg 74%
    08:00 +3°C° 0 mm 5 mps 760 mmHg 73%
    09:00 +5°C° 0 mm 5 mps 760 mmHg 71%
    10:00 +5°C° 0 mm 4 mps 760 mmHg 69%
    11:00 +6°C° 0 mm 5 mps 759 mmHg 67%
    12:00 +7°C° 0 mm 5 mps 759 mmHg 64%
    13:00 +8°C° 0 mm 5 mps 759 mmHg 61%
    14:00 +8°C° 0 mm 5 mps 758 mmHg 64%
    15:00 +8°C° 0 mm 5 mps 758 mmHg 66%
    16:00 +8°C° 0 mm 5 mps 758 mmHg 68%
    17:00 +7°C° 0 mm 4 mps 758 mmHg 74%
    18:00 +6°C° 0 mm 4 mps 758 mmHg 79%
    19:00 +5°C° 0 mm 4 mps 758 mmHg 84%
    20:00 +4°C° 0 mm 3 mps 758 mmHg 87%
    21:00 +4°C° 0 mm 3 mps 758 mmHg 90%
    22:00 +4°C° 0 mm 2 mps 758 mmHg 93%
    23:00 +4°C° 0 mm 2 mps 758 mmHg 93%
    Show more